Van, Turkey

4:27 AM +03 on April 25, 2018 (GMT +0300)
Van

Weather History for LTCI - April, 2013

Change the Weather History Date:

Monday, April 1, 2013

  Actual Average Record
Temperature  
Mean Temperature 42 °F -  
Max Temperature 51 °F 54 °F 64 °F (2001)
Min Temperature 33 °F 36 °F 14 °F (2014)
Degree Days  
Heating Degree Days 23    
Moisture  
Dew Point 34 °F    
Average Humidity 70    
Maximum Humidity 81    
Minimum Humidity 47    
Precipitation  
Precipitation 0.00 in 0.07 in - ()
Sea Level Pressure  
Sea Level Pressure 30.17 in    
Wind  
Wind Speed 3 mph ()    
Max Wind Speed 8 mph    
Max Gust Speed -    
Visibility 6.2 miles    
Events      
Averages and records for this station are not official NWS values.
T = Trace of Precipitation, MM = Missing Value Source: Averaged Metar Reports

Daily Weather History Graph

Daily Weather History Graph

Search for Another Location

Airport or City:

Astronomy

Apr. 01, 2013 Rise Set
Actual Time 5:51 AM EEST 6:29 PM EEST
Civil Twilight 5:25 AM EEST 6:56 PM EEST
Nautical Twilight 4:53 AM EEST 7:28 PM EEST
Astronomical Twilight 4:21 AM EEST 8:00 PM EEST
Moon No Moon Rise 9:19 AM EEST (4/1)
Length of Visible Light 13h 31m
Length of Day
12h 38m
Waning Gibbous, 70% of the Moon is Illuminated
Apr 1
Waning Gibbous
Apr 3
Last Quarter
Apr 10
New
Apr 18
First Quarter
Apr 25
Full

Hourly Weather History & Observations

Time (EEST) Temp. Windchill Dew Point Humidity Pressure Visibility Wind Dir Wind Speed Gust Speed Precip Events Conditions
12:50 AM 37.4 °F - 30.2 °F 75% 30.21 in 6.2 mi SSE 2.3 mph - N/A   Partly Cloudy
1:50 AM 35.6 °F - 30.2 °F 81% 30.21 in 6.2 mi Variable 1.2 mph - N/A   Partly Cloudy
3:00 AM 36 °F - 31 °F 76%  in 6 mi SSE 4.6 mph - -   Scattered Clouds
3:50 AM 35.6 °F 32.8 °F 30.2 °F 81% 30.21 in 6.2 mi ENE 3.5 mph - N/A   Partly Cloudy
4:50 AM 35.6 °F 31.7 °F 30.2 °F 81% 30.21 in 6.2 mi East 4.6 mph - N/A   Partly Cloudy
5:50 AM 37.4 °F - 32.0 °F 81% 30.21 in 6.2 mi Variable 2.3 mph - N/A   Partly Cloudy
6:50 AM 39.2 °F - 33.8 °F 81% 30.21 in 6.2 mi SSE 2.3 mph - N/A   Scattered Clouds
7:50 AM 42.8 °F - 35.6 °F 76% 30.21 in 6.2 mi Calm Calm - N/A   Scattered Clouds
8:50 AM 44.6 °F 42.2 °F 37.4 °F 76% 30.21 in 6.2 mi WSW 4.6 mph - N/A   Scattered Clouds
9:00 AM 44 °F - 38 °F 71%  in 6 mi WSW 4.6 mph - -   Partly Cloudy
9:50 AM 46.4 °F 43.5 °F 39.2 °F 76% 30.21 in 6.2 mi West 5.8 mph - N/A   Scattered Clouds
10:50 AM 46.4 °F 43.5 °F 35.6 °F 66% 30.21 in 6.2 mi West 5.8 mph - N/A   Scattered Clouds
11:50 AM 48.2 °F - 37.4 °F 66% 30.18 in 6.2 mi West 8.1 mph - N/A   Scattered Clouds
12:50 PM 50.0 °F - 41.0 °F 71% 30.18 in 6.2 mi West 8.1 mph - N/A   Scattered Clouds
1:50 PM 50.0 °F - 41.0 °F 71% 30.15 in 6.2 mi WSW 6.9 mph - N/A   Scattered Clouds
2:50 PM 51.8 °F - 37.4 °F 58% 30.15 in 6.2 mi WSW 5.8 mph - N/A   Scattered Clouds
3:00 PM 51 °F - 37 °F 49%  in 6 mi WSW 5.8 mph - -   Scattered Clouds
3:50 PM 50.0 °F - 41.0 °F 71% 30.15 in 6.2 mi Variable 5.8 mph - N/A   Scattered Clouds
4:50 PM 50.0 °F - 37.4 °F 62% 30.12 in 6.2 mi West 4.6 mph - N/A   Scattered Clouds
5:50 PM 50.0 °F - 30.2 °F 47% 30.12 in 6.2 mi SW 2.3 mph - N/A   Partly Cloudy
6:50 PM 44.6 °F - 35.6 °F 71% 30.12 in 6.2 mi Variable 1.2 mph - N/A   Partly Cloudy
7:50 PM 42.8 °F - 30.2 °F 61% 30.12 in 6.2 mi Variable 2.3 mph - N/A   Partly Cloudy
8:50 PM 41.0 °F - 32.0 °F 70% 30.12 in 6.2 mi Calm Calm - N/A   Partly Cloudy
9:00 PM 42 °F - 33 °F 61%  in 6 mi Calm Calm - -   Scattered Clouds
9:50 PM 41.0 °F - 30.2 °F 65% 30.12 in 6.2 mi Calm Calm - N/A   Partly Cloudy
10:50 PM 37.4 °F - 30.2 °F 75% 30.09 in 6.2 mi Variable 1.2 mph - N/A   Partly Cloudy
11:50 PM 41.0 °F 39.0 °F 32.0 °F 70% 30.09 in 6.2 mi SW 3.5 mph - N/A   Scattered Clouds